ATLAS 5 CENTAUR R/B, 66455

Orbit data source: Space-Track

ATLAS 5 CENTAUR R/B, 66455 is space debris in MEO originally from a launch on Thu, 13 Nov 2025 UTC launched from the Air Force Eastern Test Range (AFETR). Debris objects in space refer to the collection of defunct objects orbiting the Earth. Examples of debris include non-operational satellites, rocket bodies, and fragments generated from explosions, collisions, or faulty payload assembly.

Loading next visibility...
Identifier
66455, 2025-261B
Orbit
MEO
Country
Flag of USUS
Related business
Flag of USUnited Launch Alliance/Lockheed Martin (US)
Manufacturer
ULA Decatur
Mission
Spacecraft
Bus & Motor
CENTAUR SEC, RL10A-4-2
Mass
~2,020 kg wet, 2,020 kg dry
Launch date (UTC)
2025-11-13 (6 months ago)
Launch vehicle
Unknown
Launch site
Air Force Eastern Test Range (AFETR)
Object type
Payload
Rocket body
Debris
Shape & HBR
Cyl + 1 Nozzle, 8.0 m
Radar Cross Section
32.260 m²

Expand to show TLE details & history
Last TLE update: 11 hours ago

TLE from 11 hours ago
0 ATLAS 5 CENTAUR R/B
1 66455U 25261B   26121.06849068 -.00000076  00000-0  00000-0 0  9999
2 66455   5.9671 277.4674 2323999 214.6810 155.7246  2.28261250  3834
Epoch: 2026-05-01T01:38Z
TLE epoch observation values (Epoch: 2026-05-01T01:38:37.594Z)
Latitude
1.95186°
Longitude
52.71127°
Altitude
23,301.912 km
Speed
3.241 km/s
True Right ascension
19h 45m 29s
True Declination
1° 56' 57"
Sunlit
Object was in daylight at epoch
Visualization orbit readout
Latitude
Unknown
Longitude
Unknown
Altitude
Unknown
Speed
Unknown
Apparent Right ascension
Unknown
Apparent Declination
Unknown
Sunlit
N/A
Visualization observer readout
Local Sidereal Time
20:31:05
Azimuth
Unknown
Elevation
Unknown
Doppler factor
Unknown
Orbital elements
Apogee altitude
23,652.652 km
Perigee altitude
12,326.536 km
Semi-major axis
24,367.731 km
Eccentricity
0.2324
Inclination
5.9671°
RAAN
277.4674°
Arg. of periapsis
214.681°
True anomaly
164.33795°
Mean anomaly
155.7246°
Eccentric anomaly
160.22878°
Mean motion
0.57059 °/min
Orbital period
630.93 mins
BSTAR
0
Loading maneuver chart data...
Computing Atmospheric mass density...
Loading historical data...
Loading historical data...
Loading historical data...
Loading historical data...
Loading historical data...
Loading historical data...
Loading historical data...
Other satellites on launch #261 in the year 2025 (2025-11-13 UTC)

Documentation

Showing up to 5 results
|